EHI
0 0 0 0 0 0 0 0 0 0 0 0 0 0 0 0 0 0 0 0 1 0 0 0 0 0 0 0 0 0 0 0 0 0 0 0 0 1 2 3 3 2 1
0 0 0 0 0 0 0 0 0 0 0 0 0 0 0 0 0 0 0 0 1 0 0 0 0 0 0 0 1 1 1 1 0 0 0 0 0 1 2 2 3 2 1
0 0 0 0 0 0 0 0 0 0 0 0 0 0 0 0 0 0 0 0 0 0 0 0 0 0 0 0 1 2 2 1 0 0 0 0 1 2 3 3 3 3 1
0 0 0 0 0 0 0 0 0 0 0 0 0 0 0 0 0 0 0 0 0 0 0 0 0 0 1 1 1 1 2 1 0 0 0 0 1 3 3 3 3 3 2
0 0 0 0 0 0 0 0 0 0 0 0 0 0 0 0 0 0 0 0 0 0 0 0 0 0 2 2 1 0 0 0 0 0 0 0 1 2 2 1 1 2 1
0 0 0 0 0 0 0 0 0 0 0 0 0 0 0 0 0 0 0 0 0 0 0 0 0 0 1 1 0 0 0 0 0 0 0 0 1 1 1 0 0 0 0
0 0 0 0 0 0 0 0 0 0 0 0 0 0 0 0 0 0 0 0 0 0 0 0 0 0 0 0 0 0 0 0 0 0 0 0 0 0 0 0 0 0 0
0 0 0 0 0 0 0 0 0 0 0 0 0 0 0 0 0 0 0 0 0 0 0 0 0 0 0 0 0 0 0 0 0 0 0 0 0 0 0 0 0 0 0
0 0 0 0 0 0 0 0 0 0 0 0 0 0 0 0 0 0 0 0 0 0 0 0 0 0 0 0 0 0 0 0 0 0 0 0 1 1 1 0 0 0 0
0 0 0 0 0 0 0 0 0 0 0 0 0 0 0 0 0 0 0 0 0 0 0 0 0 0 0 0 0 0 0 0 0 0 0 0 1 1 1 0 0 0 0
0 0 0 0 0 0 0 0 0 0 0 0 0 0 0 0 0 0 0 0 0 0 0 0 0 0 0 0 0 0 0 0 0 0 0 0 0 1 1 1 0 0 0
0 0 0 0 0 0 0 0 0 0 0 0 0 0 0 0 0 0 0 0 0 0 0 0 0 0 0 0 0 0 0 0 0 0 0 0 0 0 1 1 1 0 1
0 0 0 0 0 0 0 0 0 0 0 0 0 0 0 0 0 0 0 0 0 0 0 0 0 0 0 0 0 0 0 0 0 0 0 0 0 0 1 2 1 0 1
0 0 0 0 0 0 0 0 0 0 0 0 0 0 0 0 0 0 0 0 0 0 0 0 0 0 0 0 0 0 0 0 0 0 0 0 0 0 1 2 1 0 1
0 0 0 0 0 0 0 0 0 0 0 0 0 0 0 0 0 0 0 0 0 0 0 0 0 0 0 0 0 0 0 0 0 0 0 0 0 0 1 1 0 0 0
0 0 0 0 0 0 0 0 0 0 0 0 0 0 0 0 0 0 0 0 0 0 0 0 0 0 0 0 0 0 0 0 0 0 0 0 0 0 0 0 0 0 0
0 0 0 0 0 0 0 0 0 0 0 0 0 0 0 0 0 0 0 0 0 0 0 0 0 0 0 0 0 0 0 0 0 0 0 0 0 0 0 0 0 0 0
0 0 0 0 0 0 0 0 0 0 0 0 0 0 0 0 0 0 0 0 0 0 0 0 0 0 0 0 0 0 0 0 0 0 0 0 0 0 0 0 0 0 0
0 0 0 0 0 0 0 0 0 0 0 0 0 0 0 0 0 0 0 0 0 0 0 0 0 0 0 0 0 0 0 0 0 0 0 0 0 0 0 0 0 0 0
0 0 0 0 0 0 0 0 0 0 0 0 0 0 0 0 0 0 0 0 0 0 0 0 0 0 0 0 0 0 0 0 0 0 0 0 0 0 0 0 0 0 0
0 0 0 0 0 0 0 0 0 0 0 0 0 0 0 0 0 0 0 0 0 0 0 0 0 0 0 0 0 0 0 0 0 0 0 0 0 0 0 0 0 0 0
1 1 0 0 0 0 0 0 0 0 0 0 0 0 0 0 0 0 0 0 0 0 0 0 0 0 0 0 0 0 0 0 0 0 0 0 0 0 0 0 0 0 0
2 2 1 0 0 0 0 0 0 0 0 0 0 0 0 0 0 0 0 0 0 0 0 0 0 0 0 0 0 0 0 0 0 0 0 0 0 0 0 0 0 0 0
3 3 2 1 1 0 0 0 0 0 0 0 0 0 0 0 0 0 0 0 0 0 0 0 0 0 0 0 0 0 0 0 0 0 0 0 0 0 0 0 0 0 0
3 3 3 3 2 1 0 0 0 0 0 0 0 0 0 0 0 0 0 0 0 0 0 0 0 0 0 0 0 0 0 0 0 0 0 0 0 0 0 0 0 0 0
3 3 3 3 3 2 1 0 0 0 0 0 0 0 0 0 0 0 0 0 0 0 0 0 0 0 0 0 0 0 0 0 0 0 0 0 0 0 0 0 0 0 0
Wind_Speed
4 3 3 3 3 3 2 2 3 4 4 4 4 5 5 4 4 4 5 9 9 9 8 8 9 8 8 8 7 7 6 6 5 4 4 3 3 2 1 2 3 3 3
4 3 4 4 4 3 3 2 4 3 3 3 4 5 4 4 4 4 4 6 8 9 10 10 10 10 9 9 9 8 7 6 4 3 3 3 3 3 3 2 3 4 4
5 4 4 4 4 3 3 3 4 3 3 3 4 5 5 5 4 5 5 3 4 8 9 10 11 11 11 10 10 9 7 7 4 3 3 3 3 3 3 3 4 4 4
6 4 4 4 4 3 3 3 3 3 3 3 4 4 4 4 5 5 4 4 4 4 7 9 10 11 11 11 11 10 9 8 7 6 5 4 4 4 3 4 5 5 4
6 5 4 4 4 3 3 3 3 3 4 4 3 4 4 4 5 5 6 6 6 5 4 5 6 10 11 12 12 11 10 8 7 6 6 5 4 4 4 4 5 5 4
6 5 4 4 4 3 3 3 4 3 3 3 3 4 4 4 4 5 5 6 6 7 6 6 4 5 9 12 13 12 11 9 8 7 6 5 5 4 4 4 4 4 4
5 5 4 5 4 4 4 4 3 3 3 2 2 3 4 5 5 4 5 5 6 7 6 6 5 5 3 7 11 12 12 10 9 8 7 6 5 5 4 3 3 3 3
5 4 5 4 4 3 4 4 3 2 2 2 1 0 2 3 3 4 4 5 6 5 6 7 7 6 5 4 7 11 11 10 10 9 8 7 6 5 4 4 3 3 2
4 4 5 4 4 4 4 4 3 2 2 2 3 3 2 2 2 3 5 4 5 5 5 6 7 7 7 6 5 8 10 10 9 9 8 7 6 5 5 5 4 3 2
3 3 4 4 4 4 4 3 3 2 2 1 2 3 4 3 2 1 2 3 5 5 6 5 6 7 7 6 6 10 10 10 9 9 8 7 6 6 5 4 4 4 3
3 3 3 3 3 3 4 4 3 3 2 2 2 2 2 1 3 2 1 1 2 4 5 5 5 6 6 7 7 11 11 10 10 10 9 7 6 6 6 5 4 3 3
2 2 2 2 2 3 3 3 3 4 3 3 2 2 2 2 2 2 2 1 2 2 3 4 4 5 5 5 8 11 11 10 10 10 10 9 8 7 6 6 5 4 3
2 2 1 1 2 2 3 2 2 3 3 3 2 2 2 2 2 2 2 2 2 1 1 2 4 4 4 4 5 8 9 10 10 9 9 8 8 7 7 7 6 5 4
1 2 1 1 1 2 2 2 1 2 2 2 3 2 1 2 2 2 3 3 2 1 1 2 3 4 4 4 6 6 5 9 9 9 8 8 8 8 8 7 7 6 6
2 2 2 2 2 1 1 1 1 1 1 2 2 2 2 2 2 2 2 3 4 3 2 2 2 4 4 4 6 5 5 8 8 7 7 7 7 7 7 7 7 7 6
3 3 2 2 2 2 1 1 0 1 1 1 1 2 2 2 2 2 2 2 3 3 3 2 2 3 4 4 4 5 4 3 5 6 7 7 7 6 6 6 7 7 6
4 4 3 2 2 2 1 1 0 0 0 0 0 1 1 2 2 2 2 2 2 2 3 2 2 3 4 4 4 4 4 3 3 5 6 6 6 5 5 6 6 7 6
4 3 3 3 2 2 2 1 1 1 1 1 1 1 1 0 1 2 2 2 2 2 3 3 3 3 4 4 4 4 4 3 3 4 4 4 5 5 5 5 5 6 6
4 4 4 3 3 3 2 2 2 2 1 1 1 1 1 1 1 1 2 2 2 2 2 3 3 3 3 3 4 4 4 3 3 1 0 1 3 4 5 5 5 5 5
4 4 4 4 3 3 3 3 2 2 2 1 1 2 2 2 2 2 2 2 2 3 3 3 3 3 3 3 4 4 3 3 4 4 3 3 2 3 2 3 4 4 5
4 4 4 4 4 3 3 3 3 3 3 2 2 2 2 2 4 4 4 3 3 3 3 3 3 3 3 3 4 4 4 4 3 3 4 4 3 3 2 3 3 4 4
5 4 5 5 4 3 2 2 5 4 4 3 3 3 2 3 2 3 4 5 6 5 5 4 4 4 5 4 4 5 5 5 4 3 5 5 4 4 4 3 2 4 5
5 5 6 5 5 4 5 5 6 6 5 4 4 4 3 3 4 4 4 7 6 6 7 7 6 6 6 5 6 6 6 6 6 5 6 6 5 5 4 2 1 4 6
5 5 5 5 4 4 5 6 7 7 6 5 5 5 5 5 4 5 6 5 5 4 5 7 6 6 6 6 6 7 7 7 7 5 5 6 5 6 5 4 4 5 6
5 6 5 5 5 5 6 6 7 6 5 6 5 6 6 6 2 5 8 7 7 5 4 6 7 7 7 8 8 7 6 7 7 5 4 6 6 6 6 6 4 6 7
5 5 5 5 5 5 5 6 8 5 6 5 5 5 4 6 4 6 8 8 8 7 7 6 8 10 10 9 10 8 7 7 7 6 4 5 6 6 6 5 4 4 6
Wind_Direction
42 48 51 43 42 43 53 42 46 51 44 47 46 46 48 46 46 59 75 62 46 38 34 30 28 22 15 9 5 1 355 350 351 355 359 7 11 16 76 107 127 128 133
42 40 55 50 42 36 37 45 63 61 55 49 50 49 42 50 47 59 64 82 67 47 36 33 29 23 17 12 7 359 355 351 345 347 6 22 29 37 68 92 113 120 126
42 46 44 50 41 41 47 44 61 55 60 66 65 59 54 44 47 54 53 41 69 75 52 38 32 27 20 14 10 7 10 7 13 33 38 41 47 51 66 97 111 114 124
43 46 44 46 39 39 47 54 43 54 61 56 59 57 61 55 49 49 51 55 42 43 68 51 37 29 24 19 18 23 28 24 38 47 47 48 58 65 74 91 107 112 117
39 50 39 32 41 43 45 53 52 44 62 64 72 65 58 56 49 45 47 43 45 36 44 73 58 40 31 25 21 23 25 29 38 41 44 50 58 65 79 91 96 105 110
38 46 48 39 37 49 51 63 69 59 56 59 72 72 68 72 60 43 41 46 39 37 34 28 35 61 50 33 23 22 24 30 35 38 42 49 53 62 77 90 99 104 105
41 45 38 44 31 47 46 59 71 85 70 50 101 101 94 70 59 55 39 41 47 38 34 33 23 17 43 55 32 23 23 26 31 35 38 43 49 54 63 79 93 102 107
43 41 47 54 52 56 55 54 51 48 67 16 350 280 139 125 73 56 50 40 37 37 32 29 27 24 18 22 45 27 19 21 27 31 34 36 41 50 57 66 76 93 108
50 40 45 48 50 52 57 46 41 33 44 52 16 341 337 41 83 75 46 45 36 28 30 23 24 22 20 22 21 32 21 18 24 29 28 31 36 46 54 57 63 71 74
61 48 54 50 53 53 59 54 49 32 7 35 59 20 11 13 314 104 94 50 34 30 27 20 21 20 20 20 30 32 25 21 24 27 28 31 34 38 44 53 55 54 48
68 57 51 54 55 58 55 52 48 33 32 19 25 34 45 29 325 329 19 27 44 37 26 20 21 19 18 24 25 34 30 26 27 26 26 27 30 37 38 42 46 48 36
102 82 61 67 63 59 61 53 54 56 41 39 21 21 7 10 6 351 332 351 20 36 26 23 17 18 15 26 31 28 27 25 26 27 27 27 29 31 31 30 28 26 18
124 103 90 73 72 69 65 53 52 48 56 49 31 28 24 20 3 341 325 341 340 358 18 30 23 13 12 19 28 13 33 24 23 23 25 26 27 28 27 24 19 17 11
124 118 124 96 88 85 84 71 36 47 43 51 45 34 17 22 358 350 340 325 314 324 342 23 19 16 10 10 13 332 37 28 19 18 20 25 27 28 29 26 22 18 14
154 156 157 147 137 123 82 74 41 59 44 28 28 35 14 27 347 348 334 319 313 313 341 17 353 12 355 6 350 352 18 30 16 14 17 23 24 23 22 19 15 15 13
174 183 183 174 164 153 149 122 51 35 50 62 0 357 0 356 360 340 325 322 316 313 316 348 337 349 350 339 356 349 11 32 31 20 21 20 18 13 12 15 11 7 3
190 195 195 201 190 184 172 153 203 160 272 94 265 351 353 352 337 334 326 318 316 311 299 315 337 343 336 340 346 343 340 338 40 37 18 10 9 7 9 9 5 3 359
197 202 197 204 200 208 201 196 209 216 256 302 326 318 325 11 334 328 323 317 322 309 300 311 318 333 334 340 336 327 329 338 345 48 18 2 359 357 357 357 356 354 353
193 193 198 207 206 212 214 215 222 233 243 273 298 301 310 308 298 327 305 314 315 314 303 292 309 325 311 322 318 316 320 323 319 342 325 348 352 346 343 344 345 343 344
198 200 200 206 212 212 216 219 227 237 241 249 268 284 294 299 306 307 299 305 305 299 295 291 297 302 304 311 304 313 313 318 316 319 325 312 286 269 285 312 325 328 329
206 207 206 207 212 218 223 238 236 243 245 245 248 254 282 330 341 323 314 308 299 292 293 296 299 300 307 310 317 315 313 308 306 312 306 300 291 284 262 238 268 313 314
205 203 210 211 213 212 177 250 268 251 251 251 255 255 231 226 233 248 281 301 307 300 302 295 293 300 310 314 317 306 307 307 306 322 304 301 296 291 290 291 334 313 303
201 207 213 215 219 202 191 216 246 260 256 262 266 262 260 254 251 252 232 229 240 253 271 285 292 300 304 311 305 303 306 305 303 312 304 294 293 287 286 284 241 282 287
199 207 213 216 221 210 198 216 233 246 250 252 257 264 261 259 269 284 276 270 271 263 263 268 282 292 300 304 297 295 297 291 286 284 286 288 294 291 290 281 230 244 263
204 208 212 215 218 211 197 213 234 243 248 253 255 262 268 265 266 279 273 273 272 267 241 248 274 280 286 284 284 280 283 285 287 284 279 284 292 294 288 276 245 215 236
210 212 214 221 225 230 189 210 239 247 252 256 257 254 248 270 273 267 269 273 276 281 282 263 250 245 253 247 245 262 277 282 288 288 281 279 287 295 291 276 280 273 255